Location: Poznań
(52.4062°N, 16.9234°E)
Time: 22:50:48
(UTC+01:00)

ISS - Pass Details

Date: 26 January 2019
Orbit: 403 x 411 km, 51.6° (Epoch: 16 February)

Event Time Altitude Azimuth Distance (km) Brightness Sun altitude
Rises 19:14:00 0° 250° (WSW) 2,334 1.1 -25.2°
Reaches altitude 10° 19:16:05 10° 247° (WSW) 1,476 -0.2 -25.5°
Enters shadow 19:17:36 24° 240° (WSW) 888 -1.6 -25.7°
